Content
SEND FEEDBACK

Daily
Averages
Monthly
Summary
United States of America

POINT HOPE, ALASKA


Home > North America > United States > Alaska
Elevation: 4 feet     Latitude: 68 52N     Longitude: 166 07W

WEATHER
 
SELECT A DAY
Number of Records: 224,686;   Date Range: 1/1/95 - 7/20/14
 
SHARE

PRINT THIS DATA

[ ← Previous Day ]
WEATHER ALMANAC - FEBRUARY 13, 2013
[ Next Day → ]
[ °C ]   °F
Weather ElementAverageHighLow
Temperature-5.7 °F-4 °F (2:32 am)-7.6 °F (1:52 am)
Dewpoint-10.2 °F-7.6 °F (2:32 am)-12.3 °F (3:55 pm)
Humidity80.6 %92 % (1:52 am)76 % (3:55 pm)
Barometer29.86 in29.88 in (12:13 pm)29.83 in (10:53 pm)

Weather ElementAverage
Weather ElementTotal
Precipitation---
Heating Degree Days70.8 (Base 65)
Averaged from 58 records on February 13, 2013
WEATHER CONDITIONS BREAKOUT
WIND DIRECTION BREAKOUT
WEATHER BY HOUR - FEBRUARY 13, 2013
[ °C ]   °F
Local TimeTemperatureDewpointHumidityBarometerVisibilityWind DirectionWind SpeedGust SpeedPrecipitationEventsConditions
1:32 AM-5.8 °F-9.4 °F84 %29.86 in10.0 miNorthScattered Clouds
1:52 AM-7.6 °F-9.4 °F92 %29.86 in10.0 miNorthSnowLight Snow
1:55 AM-6.7 °F-9.6 °F87 %29.86 in10.0 miNorthSnowLight Snow
2:32 AM-4.0 °F-7.6 °F85 %29.86 in10.0 miNorthScattered Clouds
2:53 AM-4.0 °F-7.6 °F85 %29.87 in10.0 miNorthSnowLight Snow Showers
3:53 AM-4.0 °F-7.6 °F85 %29.87 in9.0 miNorthSnowLight Snow Showers
3:55 AM-4.7 °F-8.0 °F86 %29.87 in9.0 miNorthSnowLight Snow Showers
4:53 AM-4.0 °F-7.6 °F85 %29.87 in10.0 miNorthSnowLight Snow
4:55 AM-4.4 °F-8.0 °F84 %29.87 in10.0 miNorthSnowLight Snow
5:55 AM-4.9 °F-8.5 °F84 %29.86 in10.0 miNorthSnowLight Snow
6:53 AM-5.8 °F-9.4 °F84 %29.86 in4.0 miNorthSnowLight Snow
6:55 AM-5.3 °F-9.0 °F84 %29.86 in4.0 miNorthSnowLight Snow
7:13 AM-5.8 °F-9.4 °F84 %29.86 in2.5 miNorthSnowLight Snow
7:33 AM-5.8 °F-9.4 °F84 %29.86 in5.0 miNorthSnowLight Snow
7:53 AM-5.8 °F-9.4 °F84 %29.86 in8.0 miNorthSnowLight Snow
7:55 AM-5.1 °F-9.0 °F83 %29.86 in8.0 miNorthSnowLight Snow
8:13 AM-5.8 °F-9.4 °F84 %29.86 in10.0 miNorthSnowLight Snow
8:53 AM-5.8 °F-9.4 °F84 %29.86 in10.0 miNorthMostly Cloudy
8:55 AM-5.3 °F-9.0 °F84 %29.86 in10.0 miNorthMostly Cloudy
9:13 AM-5.8 °F-9.4 °F84 %29.86 in10.0 miNorthSnowLight Snow Showers
9:53 AM-5.8 °F-9.4 °F84 %29.87 in3.0 miNorthSnowLight Snow Showers
9:55 AM-5.4 °F-9.6 °F82 %29.87 in3.0 miNorthSnowLight Snow Showers
10:13 AM-5.8 °F-9.4 °F84 %29.87 in2.5 miNorthSnowLight Snow Showers
10:33 AM-5.8 °F-9.4 °F84 %29.87 in2.5 miNorthSnowLight Snow
10:53 AM-5.8 °F-9.4 °F84 %29.87 in4.0 miNorthSnowLight Snow
10:55 AM-5.8 °F-10.3 °F81 %29.87 in4.0 miNorthSnowLight Snow
11:13 AM-5.8 °F-9.4 °F84 %29.87 in4.0 miNorthScattered Clouds
11:53 AM-5.8 °F-11.2 °F77 %29.87 in4.0 miNorthSnowLight Snow Showers
11:55 AM-6.0 °F-11.2 °F78 %29.87 in4.0 miNorthSnowLight Snow Showers
12:13 PM-5.8 °F-11.2 °F77 %29.88 in5.0 miNorthClear
12:53 PM-5.8 °F-11.2 °F77 %29.88 in9.0 miNorthSnowLight Snow
12:55 PM-6.5 °F-11.9 °F77 %29.88 in7.0 miNorthSnowLight Snow
1:33 PM-5.8 °F-11.2 °F77 %29.87 in10.0 miNorthScattered Clouds
1:55 PM-6.5 °F-11.7 °F78 %29.87 in10.0 miNorthMostly Cloudy
2:33 PM-5.8 °F-11.2 °F77 %29.87 in10.0 miNorthSnowLight Snow Showers
2:55 PM-6.9 °F-12.1 °F78 %29.87 in10.0 miNorthSnowLight Snow Showers
3:13 PM-5.8 °F-11.2 °F77 %29.86 in10.0 miNorthMostly Cloudy
3:53 PM-5.8 °F-11.2 °F77 %29.86 in10.0 miNorthSnowLight Snow Showers
3:55 PM-6.5 °F-12.3 °F76 %29.86 in10.0 miNorthSnowLight Snow Showers
4:33 PM-5.8 °F-11.2 °F77 %29.85 in8.0 miNorthSnowLight Snow Showers
4:53 PM-5.8 °F-11.2 °F77 %29.85 in7.0 miNorthSnowLight Snow
4:55 PM-6.2 °F-11.7 °F77 %29.85 in6.0 miNorthSnowLight Snow
5:33 PM-5.8 °F-11.2 °F77 %29.85 in10.0 miNorthClear
5:55 PM-6.0 °F-11.2 °F78 %29.85 in10.0 miNorthClear
6:53 PM-5.8 °F-11.2 °F77 %29.85 in10.0 miNorthSnowLight Snow Showers
6:55 PM-6.5 °F-11.0 °F81 %29.85 in10.0 miNorthSnowLight Snow Showers
7:13 PM-5.8 °F-11.2 °F77 %29.84 in10.0 miNorthPartly Cloudy
7:53 PM-5.8 °F-11.2 °F77 %29.84 in10.0 miNorthSnowLight Snow Showers
7:55 PM-6.7 °F-11.6 °F79 %29.84 in10.0 miNorthSnowLight Snow Showers
8:55 PM-6.3 °F-11.6 °F78 %29.84 in4.0 miNorthSnowLight Snow
9:13 PM-5.8 °F-11.2 °F77 %29.84 in4.0 miNorthSnowLight Snow
9:33 PM-5.8 °F-11.2 °F77 %29.84 in6.0 miNorthSnowLight Snow
9:53 PM-5.8 °F-11.2 °F77 %29.84 in4.0 miNorthSnowLight Snow
9:55 PM-6.0 °F-11.7 °F76 %29.84 in5.0 miNorthSnowLight Snow
10:53 PM-5.8 °F-11.2 °F77 %29.83 in10.0 miNorthSnowLight Snow
10:55 PM-5.1 °F-10.7 °F77 %29.83 in10.0 miNorthSnowLight Snow
11:53 PM-4.0 °F-9.4 °F78 %29.84 in10.0 miNorthSnowLight Snow Showers
11:55 PM-4.2 °F-9.9 °F76 %29.84 in10.0 miNorthSnowLight Snow Showers
Hourly data recorded from PALU, located miles away from Point Hope, Alaska







STORIES FROM OUR PARTNERS